DW7780 Weather Reports


time (UTC)temp
F
wind
direction
speed
knots
gust
knots
rain 1hr
in
rain 24hr
in
rain mn
in
humidity
%
barometer
mb
20260903124539 70 0 0.0 0.0 0.00 0.60 0.58 98 1015.7
20260903123036 70 0 0.0 1.7 0.00 0.60 0.58 98 1015.6
20260903121530 69 0 0.0 1.7 0.00 0.60 0.58 98 1015.4
20260903120031 69 0 0.0 1.7 0.00 0.60 0.58 98 1015.2
20260903114534 69 0 0.0 1.7 0.00 0.60 0.58 98 1014.5
20260903113033 69 0 0.9 2.6 0.00 0.60 0.58 98 1015.5
20260903111555 69 0 0.0 2.6 0.00 0.60 0.58 98 1015.7
20260903110036 69 0 0.0 2.6 0.00 0.60 0.58 98 1016.1
20260903104547 69 0 0.0 0.0 0.00 0.61 0.58 98 1016.2
20260903103032 69 220 0.0 2.6 0.01 0.61 0.58 98 1016.1
20260903101539 69 0 0.0 0.0 0.02 0.61 0.58 98 1015.9
20260903100036 68 0 0.0 0.9 0.05 0.61 0.58 98 1016.1
20260903094532 68 0 0.0 0.9 0.08 0.61 0.58 98 1015.4
20260903093039 68 0 0.0 2.6 0.10 0.60 0.57 98 1015.9
20260903091534 68 0 0.0 4.3 0.13 0.58 0.55 98 1015.7
20260903090033 68 0 0.0 1.7 0.15 0.56 0.52 98 1015.9
20260903084536 68 0 0.0 2.6 0.14 0.52 0.50 98 1016.8
20260903083033 68 0 0.0 0.0 0.11 0.50 0.47 98 1017.6
20260903081534 68 0 0.0 0.0 0.06 0.45 0.42 98 1017.1
20260903080033 68 0 0.0 0.0 0.02 0.41 0.38 98 1017.9
20260903074537 68 0 0.0 0.0 0.00 0.39 0.36 98 1017.7
20260903073042 68 0 0.0 0.0 0.03 0.39 0.36 98 1016.8
20260903071535 68 0 0.0 0.0 0.08 0.39 0.36 98 1016.8
20260903070039 68 0 0.0 0.0 0.09 0.39 0.36 98 1016.9
20260903064534 68 0 0.0 0.0 0.11 0.39 0.36 98 1016.7
20260903063035 68 0 0.0 0.0 0.20 0.36 0.33 97 1017.3
20260903061551 68 0 0.0 4.3 0.23 0.31 0.28 97 1016.9
20260903060034 68 269 0.0 3.5 0.26 0.30 0.27 97 1017.3
20260903054534 68 0 0.0 0.0 0.25 0.28 0.25 97 1017.4
20260903053034 68 0 0.0 3.5 0.12 0.15 0.12 98 1019.0
20260903051534 68 0 0.0 0.0 0.05 0.08 0.05 97 1018.9
20260903050035 68 0 0.0 0.0 0.00 0.03 0.00 97 1018.5
20260903044531 68 0 0.0 0.9 0.01 0.03 0.00 97 1018.5
20260903043037 68 0 0.0 0.0 0.01 0.03 0.00 97 1018.5
20260903041539 68 0 0.0 0.0 0.01 0.03 0.00 97 1018.5
20260903040036 68 0 0.0 0.0 0.01 0.03 0.00 97 1018.7
20260903034533 68 0 0.0 0.0 0.00 0.02 0.02 97 1018.9
20260903033031 68 0 0.0 0.0 0.00 0.02 0.02 97 1018.9
20260903031534 68 0 0.0 0.0 0.00 0.02 0.02 97 1018.6
20260903024535 68 0 0.0 1.7 0.00 0.02 0.02 97 1018.2
20260903023034 68 0 0.0 0.0 0.00 0.02 0.02 97 1018.5
20260903021535 68 0 0.0 0.9 0.00 0.02 0.02 97 1018.6
20260903020033 68 0 0.0 2.6 0.00 0.02 0.02 97 1018.5
20260903014533 68 0 0.0 1.7 0.00 0.02 0.02 97 1018.4
20260903013041 68 0 0.0 3.5 0.00 0.02 0.02 97 1018.4
20260903011534 68 0 0.0 2.6 0.00 0.02 0.02 97 1018.4
20260903010036 69 0 0.0 0.0 0.00 0.02 0.02 97 1018.8
20260903004544 69 0 0.0 0.0 0.00 0.18 0.02 97 1018.8
20260903003038 69 0 0.0 3.5 0.00 0.18 0.02 97 1018.6
20260903001534 69 0 0.0 3.5 0.00 0.18 0.02 97 1018.5
20260903000037 69 0 0.0 1.7 0.00 0.18 0.02 97 1018.3
20260902234535 69 0 0.0 4.3 0.00 0.18 0.02 97 1018.3
20260902233034 69 0 0.0 3.5 0.00 0.18 0.02 97 1018.3
20260902231537 69 0 0.0 0.9 0.01 0.18 0.02 97 1018.2
20260902230033 69 0 0.0 2.6 0.01 0.18 0.02 97 1018.2
20260902224550 69 0 0.0 3.5 0.01 0.18 0.02 96 1018.4
20260902223046 69 74 0.0 0.9 0.01 0.18 0.02 96 1018.6
20260902221543 69 0 0.0 1.7 0.00 0.17 0.01 96 1018.8
20260902220051 70 0 0.0 3.5 0.00 0.17 0.01 96 1019.0
20260902214534 70 0 0.0 0.0 0.00 0.17 0.01 96 1018.9
20260902213030 70 0 0.0 0.0 0.00 0.17 0.01 96 1018.7
20260902211532 70 0 0.0 1.7 0.00 0.17 0.01 96 1018.5
20260902210031 70 0 0.0 5.2 0.00 0.17 0.01 96 1018.5
20260902204534 70 0 0.0 0.0 0.00 0.17 0.01 97 1018.5
20260902203042 70 0 0.0 3.5 0.00 0.17 0.01 97 1018.5
20260902201547 70 0 0.0 5.2 0.00 0.17 0.01 97 1018.6
20260902200031 70 0 0.9 4.3 0.00 0.17 0.01 97 1018.6
20260902194535 70 94 0.0 5.2 0.00 0.17 0.01 97 1018.5
20260902193041 70 0 0.0 0.0 0.00 0.17 0.01 97 1018.9
20260902191534 70 0 0.0 0.0 0.00 0.17 0.01 97 1019.1
20260902190034 69 0 0.0 0.0 0.00 0.17 0.01 97 1019.4
20260902184534 69 0 0.0 0.0 0.00 0.17 0.01 96 1019.5
20260902183034 69 0 0.0 0.0 0.00 0.17 0.01 97 1019.6
20260902181536 69 0 0.0 0.0 0.00 0.17 0.01 97 1019.8
20260902180036 69 0 0.0 0.0 0.00 0.17 0.01 96 1019.8
20260902174536 69 88 0.0 1.7 0.00 0.17 0.01 96 1019.6
20260902173035 69 0 0.0 5.2 0.00 0.17 0.01 96 1019.5
20260902171538 69 0 0.0 3.5 0.00 0.17 0.01 96 1019.9
20260902170031 69 0 0.0 3.5 0.00 0.17 0.01 96 1020.4
20260902164536 69 0 0.0 0.0 0.00 0.17 0.01 96 1020.4
20260902163036 69 0 0.0 2.6 0.00 0.17 0.01 96 1020.4
20260902161532 69 0 0.9 4.3 0.00 0.17 0.01 96 1020.2
20260902160032 69 86 0.9 6.1 0.00 0.17 0.01 96 1019.9
20260902154532 69 111 0.9 7.0 0.00 0.17 0.01 97 1019.9
20260902153044 69 128 0.9 7.0 0.00 0.17 0.01 96 1020.1
20260902151534 69 110 1.7 6.1 0.00 0.17 0.01 96 1020.1
20260902150033 68 0 0.0 2.6 0.00 0.17 0.01 97 1020.1
20260902144532 68 0 0.9 4.3 0.00 0.17 0.01 97 1020.3
20260902143035 68 0 0.0 5.2 0.00 0.17 0.01 97 1020.2
20260902141531 68 0 0.9 5.2 0.00 0.17 0.01 97 1019.7
20260902140031 68 90 0.9 6.1 0.00 0.17 0.01 97 1019.9
20260902134541 68 58 0.9 7.0 0.00 0.17 0.01 97 1019.9
20260902133035 67 82 0.0 3.5 0.00 0.17 0.01 97 1019.9
20260902131540 67 0 0.9 5.2 0.00 0.17 0.01 97 1019.5
20260902130038 67 90 0.9 4.3 0.00 0.17 0.01 97 1019.5